Weather Roundup
Issued by NWS Chicago, IL

Home | Current Version | Previous Version | Graphics & Text | Print | Product List | Glossary On
Versions: 1 2 3 4 5 6 7 8 9 10 11 12 13 14 15 16 17 18 19 20 21 22 23 24 25 26 27 28 29 30 31 32 33 34 35 36 37 38 39 40 41 42 43 44 45 46 47 48 49 50
000
NZUS59 KLOT 231103
HRRLOT

CHICAGO AREA WEATHER ROUNDUP
NATIONAL WEATHER SERVICE CHICAGO/ROMEOVILLE IL
600 AM CDT SAT JUL 23 2016

NOTE: "FAIR" INDICATES FEW OR NO CLOUDS BELOW 12,000 FEET WITH NO
SIGNIFICANT WEATHER AND/OR OBSTRUCTIONS TO VISIBILITY.

* THESE STATIONS ARE NOT UNDER NWS QUALITY CONTROL. THEY ALSO MAY NOT
  REPORT WEATHER SUCH AS PRECIPITATION OR FOG.

ILZ005-006-012>014-019>023-231200-
NORTHEAST ILLINOIS

CITY           SKY/WX    TMP DP  RH WIND       PRES   REMARKS
OHARE          MOCLDY    78  75  90 W5        29.98R HX  81
MIDWAY         PTCLDY    80  75  84 W3        29.98R HX  85
AURORA         FOG       73  71  93 CALM      30.00R VSB 1/4
LANSING*       CLOUDY    75  74  96 SW3       29.99R
WAUKEGAN       PTCLDY    76  75  97 W5        29.99R FOG
DUPAGE AIRPORT CLEAR     75  73  93 CALM      29.99R
WHEELING       PTCLDY    79  75  87 CALM      29.99S HX  83
MORRIS*        CLEAR     73  72  96 CALM      29.99R FOG
NORTHERLY ISL    N/A     79  73  82 SW6         N/A  HX  82
$$

WIZ051-052-058>065-066-070>072-231200-
SOUTHEAST WISCONSIN

CITY           SKY/WX    TMP DP  RH WIND       PRES   REMARKS
MILWAUKEE      PTCLDY    77  73  87 CALM      29.99R
KENOSHA*       MOCLDY    76  75  97 CALM      30.00R FOG
RACINE*        CLEAR     76  74  93 NW6       30.01R FOG
BURLINGTON     CLEAR     72  72  99 CALM      30.00R FOG
$$

INZ001>003-010>013-019-020-231200-
NORTHWEST INDIANA

CITY           SKY/WX    TMP DP  RH WIND       PRES   REMARKS
GARY*          MOCLDY    79  79 100 CALM      29.98S HX  83
MICHIGAN CITY* NOT AVBL
RENSSELAER*    NOT AVBL
VALPARAISO     LGT RAIN  75  73  93 SW3       30.00R
$$

LMZ740>746-231200-
SOUTHERN LAKE MICHIGAN

STATION/POSITION TIME  SKY/WX   TEMP WIND        PRES    VSBY
                                AIR  DIR/SP/G
                 (UTC)          (F)  (DEG/KT/KT) (MB)    (MI)
HARRISON CRIB    1000            82  270/  6/  7   N/A
BURNHAM HARBOR   1000            80  260/  5/  7   N/A
CALUMET HARBOR   1000            79  240/  2/  5 1014.6F
BURNS HARBOR     1000            78  200/  3/  9 1015.2F
MICHIGAN CITY    1000            77  180/  5/  6   N/A
$$

ABBREVIATIONS USED IN REMARKS
   TC - TEMPERATURE IN CELSIUS
  WCI - WIND CHILL INDEX
   HX - HEAT INDEX
  VSB - VISIBILITY
$$



USA.gov is the U.S. government's official web portal to all federal, state and local government web resources and services.